Le nostre stazioni meteo in Italia

Pubblicità
Il mio iltempo24.it
Elphin, Gran Bretagna (99153): Temperatura & dewpoint: 18.06.2018 21:00:00 - 24.06.2018 21:00:00 (BST)Elphin, Gran Bretagna (99153): precipitazioni: 18.06.2018 21:00:00 - 24.06.2018 21:00:00 (BST)
Data & Tempo tt [°C] td [°C] rr [mm]
24.06.2018 21:00:00 - - -
24.06.2018 20:00:00 13,7 8,3 0,0
24.06.2018 19:00:00 14,7 8,7 0,0
24.06.2018 18:00:00 15,3 8,8 0,0
24.06.2018 17:00:00 15,4 8,8 0,0
24.06.2018 16:00:00 15,4 8,9 0,0
24.06.2018 15:00:00 15,3 8,9 0,0
24.06.2018 14:00:00 15,1 8,8 0,0
24.06.2018 13:00:00 13,8 7,9 0,0
24.06.2018 12:00:00 12,8 7,2 0,0
24.06.2018 11:00:00 12,4 7,4 0,0
24.06.2018 10:00:00 12,1 7,7 0,0
24.06.2018 09:00:00 11,7 7,0 0,0
24.06.2018 08:00:00 11,1 6,7 0,0
24.06.2018 07:00:00 10,6 6,6 0,0
24.06.2018 06:00:00 10,1 6,7 0,0
24.06.2018 05:00:00 10,2 7,5 0,0
24.06.2018 04:00:00 10,3 8,5 0,0
24.06.2018 03:00:00 10,2 8,5 0,0
24.06.2018 02:00:00 10,6 8,7 0,0
24.06.2018 01:00:00 11,0 9,2 0,0
24.06.2018 00:00:00 10,7 9,4 0,0
23.06.2018 23:00:00 10,9 9,8 0,0
23.06.2018 22:00:00 11,0 9,8 0,0
23.06.2018 21:00:00 11,2 9,6 0,0
23.06.2018 20:00:00 11,0 9,6 0,2
23.06.2018 19:00:00 10,9 9,8 0,2
23.06.2018 18:00:00 11,1 10,1 0,4
23.06.2018 17:00:00 11,4 10,4 0,2
23.06.2018 16:00:00 11,6 10,3 0,2
23.06.2018 15:00:00 11,5 10,3 0,0
23.06.2018 14:00:00 11,5 10,1 0,0
23.06.2018 13:00:00 11,3 9,5 0,2
23.06.2018 12:00:00 11,3 9,9 0,0
23.06.2018 11:00:00 10,6 9,3 0,0
23.06.2018 10:00:00 11,6 7,8 0,0
23.06.2018 09:00:00 11,9 7,6 0,0
23.06.2018 08:00:00 10,9 6,9 0,0
23.06.2018 07:00:00 10,5 7,0 0,0
23.06.2018 06:00:00 10,4 6,8 0,0
23.06.2018 05:00:00 10,2 6,5 0,0
23.06.2018 04:00:00 10,2 6,8 0,0
23.06.2018 03:00:00 10,2 7,2 0,0
23.06.2018 02:00:00 10,3 7,1 0,0
23.06.2018 01:00:00 10,3 7,5 0,0
23.06.2018 00:00:00 10,4 7,5 0,0
22.06.2018 23:00:00 10,6 7,1 0,0
22.06.2018 22:00:00 10,8 6,8 0,0
22.06.2018 21:00:00 11,1 7,4 0,0
22.06.2018 20:00:00 11,7 6,9 0,0
22.06.2018 19:00:00 12,8 7,4 0,0
22.06.2018 18:00:00 12,1 7,3 0,0
22.06.2018 17:00:00 12,3 7,2 0,0
22.06.2018 16:00:00 12,6 8,1 0,0
22.06.2018 15:00:00 13,0 7,4 0,0
22.06.2018 14:00:00 13,0 7,6 0,0
22.06.2018 13:00:00 13,8 8,2 0,0
22.06.2018 12:00:00 11,2 7,7 0,0
22.06.2018 11:00:00 11,3 7,8 0,0
22.06.2018 10:00:00 10,6 7,8 0,0
22.06.2018 09:00:00 10,2 8,0 0,0
22.06.2018 08:00:00 9,7 8,3 0,0
22.06.2018 07:00:00 9,9 7,7 0,0
22.06.2018 06:00:00 9,3 7,3 0,0
22.06.2018 05:00:00 9,0 7,2 0,0
22.06.2018 04:00:00 9,0 7,1 0,0
22.06.2018 03:00:00 9,2 7,5 0,0
22.06.2018 02:00:00 9,2 7,4 0,0
22.06.2018 01:00:00 9,0 6,5 0,0
22.06.2018 00:00:00 9,3 6,9 0,0
21.06.2018 23:00:00 9,2 7,0 0,0
21.06.2018 22:00:00 9,4 7,0 0,0
21.06.2018 21:00:00 9,8 7,4 0,0
21.06.2018 20:00:00 11,0 7,5 0,0
21.06.2018 19:00:00 11,7 7,7 0,0
21.06.2018 18:00:00 12,3 7,2 0,0
21.06.2018 17:00:00 11,8 6,8 0,0
21.06.2018 16:00:00 12,6 7,0 0,0
21.06.2018 15:00:00 12,4 7,4 0,0
21.06.2018 14:00:00 12,5 7,2 0,0
21.06.2018 13:00:00 11,9 4,1 0,0
21.06.2018 12:00:00 11,3 7,2 0,0
21.06.2018 11:00:00 10,7 5,3 0,0
21.06.2018 10:00:00 10,5 6,2 0,0
21.06.2018 09:00:00 9,7 8,1 0,4
21.06.2018 08:00:00 9,0 7,3 0,0
21.06.2018 07:00:00 8,4 6,1 0,2
21.06.2018 06:00:00 7,3 4,8 0,6
21.06.2018 05:00:00 8,0 5,3 0,2
21.06.2018 04:00:00 7,7 5,6 0,0
21.06.2018 03:00:00 7,3 5,7 0,6
21.06.2018 02:00:00 7,3 6,0 1,6
21.06.2018 01:00:00 6,8 5,7 0,6
21.06.2018 00:00:00 7,1 5,6 0,2
20.06.2018 23:00:00 7,6 6,5 0,0
20.06.2018 22:00:00 7,6 6,7 1,8
20.06.2018 21:00:00 7,3 6,2 1,0
20.06.2018 20:00:00 7,1 6,4 1,6
20.06.2018 19:00:00 11,0 6,7 0,0
20.06.2018 18:00:00 11,4 5,1 0,0
20.06.2018 17:00:00 11,1 5,6 0,0
20.06.2018 16:00:00 13,3 6,9 0,0
20.06.2018 15:00:00 11,4 5,1 0,0
20.06.2018 14:00:00 11,8 7,3 0,2
20.06.2018 13:00:00 8,5 7,0 0,8
20.06.2018 12:00:00 11,7 6,3 0,0
20.06.2018 11:00:00 10,3 8,7 1,0
20.06.2018 10:00:00 11,0 7,7 0,0
20.06.2018 09:00:00 10,2 7,9 0,0
20.06.2018 08:00:00 9,0 6,6 0,0
20.06.2018 07:00:00 8,2 7,1 0,2
20.06.2018 06:00:00 7,7 7,0 1,4
20.06.2018 05:00:00 7,8 7,1 0,6
20.06.2018 04:00:00 7,7 6,9 0,6
20.06.2018 03:00:00 8,4 7,1 0,2
20.06.2018 02:00:00 8,3 6,9 0,0
20.06.2018 01:00:00 8,6 7,0 0,0
20.06.2018 00:00:00 8,7 6,7 0,0
19.06.2018 23:00:00 9,0 6,5 0,0
19.06.2018 22:00:00 9,4 6,4 0,0
19.06.2018 21:00:00 10,3 6,1 0,0
19.06.2018 20:00:00 10,9 5,8 0,0
19.06.2018 19:00:00 9,9 6,5 0,0
19.06.2018 18:00:00 11,4 5,7 0,0
19.06.2018 17:00:00 12,3 5,5 0,0
19.06.2018 16:00:00 12,7 5,9 0,0
19.06.2018 15:00:00 12,9 6,3 0,0
19.06.2018 14:00:00 12,8 6,8 0,0
19.06.2018 13:00:00 13,0 7,1 0,0
19.06.2018 12:00:00 11,4 7,0 0,0
19.06.2018 11:00:00 11,7 7,6 0,0
19.06.2018 10:00:00 10,6 6,9 0,0
19.06.2018 09:00:00 9,8 6,6 0,0
19.06.2018 08:00:00 9,1 6,8 0,0
19.06.2018 07:00:00 8,7 5,9 0,0
19.06.2018 06:00:00 8,5 6,4 1,2
19.06.2018 05:00:00 8,5 6,3 0,4
19.06.2018 04:00:00 8,3 6,3 0,8
19.06.2018 03:00:00 8,8 5,9 2,0
19.06.2018 02:00:00 8,8 6,3 0,0
19.06.2018 01:00:00 8,9 6,4 0,2
19.06.2018 00:00:00 8,8 6,9 1,4
18.06.2018 23:00:00 8,7 6,9 0,8
18.06.2018 22:00:00 9,5 6,4 0,2
18.06.2018 21:00:00 9,3 6,0 0,4

tt = Temperatura
td = dewpoint
rr = precipitazioni

Stazioni seguenti

WeatherPro
AMSI
MeteoEarth